Location: Fort Wayne
(41.1310°N, 85.1290°W)
Time: 19:58:02
(UTC-04:00)

Daily predictions for brighter satellites

Satellite Brightness Start Highest point End
(mag) Time Altitude Azimuth Time Altitude Azimuth Time Altitude Azimuth
Cosmos 405 3.5 21:34:02 10° N 21:37:27 42° ENE 21:40:49 10° SSE
Meteor 1-13 Rocket 4.5 21:31:37 10° S 21:37:34 86° W 21:43:28 10° N
Cosmos 1666 2.6 21:36:46 10° N 21:40:31 79° E 21:44:15 10° S
USA 186 2.8 21:37:50 10° S 21:40:54 45° W 21:43:51 10° NNW
COSMOS 2487 4.2 21:38:49 10° SE 21:41:02 16° E 21:43:15 10° ENE
CENTAUR R/B 3.8 21:33:58 10° NW 21:41:44 55° WSW 21:49:52 10° SSE
Meteor 2-9 Rocket 4.2 21:39:36 10° N 21:45:07 69° E 21:50:46 10° SSE
ERS-1 Rocket 3.6 21:42:01 10° SE 21:46:38 39° ENE 21:51:17 10° N
SJ-11-01 4.3 21:42:36 10° SSE 21:47:16 78° ENE 21:52:00 10° N
Cosmos 1371 Rocket 4.2 21:43:23 10° NNW 21:48:40 62° ENE 21:53:51 10° SSE
Cosmos 1833 Rocket 3.9 21:44:36 10° SSE 21:48:42 21° E 21:52:49 10° NE
OAO 2 Rocket 4.0 21:45:44 10° WSW 21:50:15 37° S 21:54:39 11° ESE
ISS -2.0 21:47:12 10° W 21:50:17 35° NNW 21:53:21 10° NE
Cosmos 1238 Rocket 4.1 21:44:00 10° S 21:50:42 71° E 21:57:02 10° NNE
OE (NEXTSAT) 4.4 21:48:00 10° WNW 21:51:37 89° SSE 21:54:57 11° ESE
Cosmos 2058 Rocket 4.4 21:51:43 10° NNE 21:55:20 24° ENE 21:58:31 12° SE
Cosmos 2074 Rocket 4.3 21:49:48 10° N 21:56:03 75° W 22:02:17 10° S
Aureole 3 Rocket 3.9 21:53:29 10° SSW 21:59:24 66° W 22:03:38 10° N
Cosmos 1610 Rocket 4.5 21:55:16 10° N 22:01:34 83° E 22:07:44 10° S
Cosmos 2184 Rocket 4.3 21:55:23 10° NNW 22:01:41 70° W 22:07:54 10° S
Meteor 1-29 3.0 21:58:51 10° N 22:02:13 81° WNW 22:05:34 10° SSW
Cosmos 1437 Rocket 2.9 22:02:07 10° N 22:05:56 57° E 22:09:19 13° SSE
ASTEX 1 3.4 22:01:37 10° SSE 22:06:30 76° E 22:11:24 10° N
Cosmos 1939 Rocket 3.3 22:02:54 10° S 22:06:42 60° W 22:10:33 10° NNW
Meteor 2-4 Rocket 4.1 22:01:48 10° SSW 22:07:28 72° WNW 22:13:19 10° N
Intercosmos 24 3.6 22:04:24 10° N 22:08:06 69° E 22:11:24 12° SSE
Cosmos 1515 4.0 22:09:19 11° SSE 22:12:48 45° E 22:16:27 10° NNE
H-2A R/B 4.4 22:12:45 10° E 22:14:13 11° ENE 22:15:41 10° NE
Resurs 01 Rocket 4.2 22:12:03 10° SW 22:15:02 18° W 22:18:02 10° NW
PSLV R/B 4.4 22:12:45 10° W 22:15:28 27° SSW 22:16:58 18° SSE
Meteor 2-19 Rocket 4.5 22:15:00 10° N 22:21:08 69° E 22:26:34 13° SSE
Cosmos 1980 Rocket 3.8 22:17:37 10° N 22:21:58 22° NE 22:25:49 12° E
ARGOS 3.5 22:20:51 17° SE 22:24:54 52° ENE 22:30:10 10° N
Cosmos 1624 Rocket 4.3 22:25:57 10° NNW 22:31:12 68° WSW 22:35:41 14° S
TELKOM 3 3.6 22:30:19 10° NW 22:32:36 56° NNE 22:33:54 27° E
Cosmos 2228 3.3 22:29:20 10° N 22:33:31 50° E 22:35:49 24° SE
Cosmos 921 Rocket 3.0 22:29:41 10° NNW 22:34:10 85° ENE 22:37:02 21° SSE
Tiangong 2 1.5 22:34:00 10° W 22:37:10 61° N 22:39:21 18° E
SL-8 Rocket 4.2 22:33:52 10° N 22:40:03 57° E 22:44:11 22° SSE
MetOp-B 4.1 22:36:14 17° SSE 22:40:22 89° ENE 22:45:46 10° NNW
NOAA 11 4.2 22:35:58 16° SSE 22:40:25 84° WSW 22:45:53 10° NNW
H-2A R/B 2.5 22:38:01 22° SE 22:40:46 43° ENE 22:45:34 10° N
Cosmos 2366 rocket 4.4 22:41:01 10° N 22:46:56 47° ENE 22:50:16 25° SE
CZ-3A R/B 1.0 22:47:16 10° WSW 22:50:31 45° NW 22:51:31 19° NNE
Cosmos 2056 Rocket 4.2 22:45:54 10° NNW 22:50:49 47° WSW 22:54:40 16° S
Cosmos 1892 Rocket 4.0 22:49:14 10° SSW 22:53:36 61° W 22:57:59 10° N
Lacrosse 5 rocket 4.1 22:51:47 10° NNW 22:54:40 16° NNE 22:57:33 10° ENE
Terra 2.8 22:55:30 24° ESE 22:57:18 32° ENE 23:01:31 10° N
Meteor 1-4 Rocket 2.6 22:53:56 10° N 22:57:28 57° ENE 22:58:16 44° SE
Cosmos 1602 Rocket 3.8 22:57:24 34° SE 22:58:48 47° E 23:02:57 10° NNE
Cosmos 2082 Rocket 2.2 22:53:32 10° SSW 22:59:13 90° ESE 23:04:55 10° NNE
Cosmos 2278 4.1 22:56:06 10° NNW 23:01:42 59° WSW 23:05:10 23° S
Cosmos 1269 Rocket 4.4 23:01:07 30° SSE 23:03:07 43° ESE 23:08:07 10° NNE
Cosmos 1420 Rocket 4.1 23:01:35 10° NNW 23:06:49 63° ENE 23:08:59 34° SE
Cosmos 1959 Rocket 4.5 23:01:55 10° N 23:08:18 79° E 23:11:52 28° SSE
SPOT 5 2.9 23:07:20 27° S 23:09:30 59° WSW 23:13:52 10° NNW
DMSP B5D2-2 4.2 23:04:40 10° NNE 23:09:52 54° E 23:11:58 33° SSE
Cosmos 1048 Rocket 4.1 23:08:12 33° SSE 23:10:12 52° ESE 23:15:13 10° NNE
deb Chang Zheng 4 4.3 23:10:21 10° NNE 23:14:18 34° E 23:14:27 34° ESE
Cosmos 1656 3.8 23:10:26 10° NNW 23:15:50 64° WSW 23:18:29 30° S
COSMOS 2487 4.5 23:13:05 10° SW 23:16:13 29° WNW 23:19:23 10° N
Meteor 1-22 Rocket 4.1 23:11:47 10° N 23:17:07 74° E 23:19:21 37° SSE
Cosmos 1697 Rocket 2.6 23:11:34 10° NNW 23:17:13 88° WSW 23:19:38 36° SSE
Cosmos 1809 Rocket 4.4 23:12:07 10° N 23:18:15 88° E 23:21:21 31° S
SL-08 RB Rocket 4.0 23:16:19 30° SSW 23:18:20 58° W 23:22:46 10° NNW
Cosmos 1452 Rocket 3.8 23:17:28 10° NNW 23:22:41 62° WSW 23:25:00 32° S
Lacrosse 5 3.7 23:25:30 16° E 23:25:30 16° E 23:26:59 10° ENE
USA 245 4.3 23:24:43 21° W 23:24:43 21° W 23:26:20 10° NW
CARTOSAT-1 3.7 23:24:03 48° ESE 23:24:57 60° ENE 23:29:13 10° N
Timation 2 Rocket 3.9 23:20:08 13° SSW 23:25:59 85° ESE 23:32:09 10° NNE
SL-08 R/B 4.4 23:19:54 10° N 23:26:02 87° W 23:29:03 33° S
SL-16 R/B 3.7 23:22:23 10° N 23:27:03 26° NE 23:29:33 19° E
ISS -0.6 23:25:36 10° NW 23:27:30 14° N 23:29:24 10° NNE
Iridium 2 4.2 23:24:07 10° N 23:27:42 43° E 23:27:42 43° E
Cosmos 2218 Rocket 4.1 23:24:15 10° NNW 23:30:22 71° W 23:33:41 29° S
Cosmos 1833 Rocket 3.4 23:26:42 10° SW 23:32:10 53° WNW 23:37:42 10° NNE
SPOT 1/Viking Rocket 4.0 23:30:09 30° SSW 23:32:31 54° W 23:37:35 10° NNW
IGS 5A 3.4 23:32:35 59° SE 23:33:11 68° ENE 23:37:20 10° N
Meteor 2-16 Rocket 4.4 23:29:38 10° N 23:35:48 78° E 23:38:09 40° SSE
ATLAS CENTAUR R/B 3.1 23:35:06 10° N 23:37:48 19° NE 23:38:30 18° ENE
SL-24 R/B - RUBIN 2 4.5 23:33:05 18° SSW 23:38:12 75° ESE 23:44:45 10° NE
SL-19 R/B 4.0 23:33:26 10° NNE 23:38:44 69° ESE 23:40:12 46° SSE
Cosmos 1842 3.2 23:38:51 69° E 23:38:51 69° E 23:42:47 10° NNE
Cosmos 1271 Rocket 2.6 23:36:32 10° N 23:40:28 74° E 23:40:35 73° E
CZ-4C R/B 4.3 23:45:30 31° ENE 23:45:30 31° ENE 23:48:24 10° N
Cosmos 1758 Rocket 4.4 23:47:43 36° ENE 23:47:43 36° ENE 23:51:21 10° NNE
Cosmos 2251 Rocket 4.4 23:47:57 32° E 23:47:57 32° E 23:52:31 10° NE
H-2A R/B 2.1 23:48:48 61° S 23:49:33 79° WSW 23:54:06 10° NNW
Cosmos 1544 3.2 23:46:17 10° N 23:49:33 68° NNE 23:49:33 68° NNE
Cosmos 1812 Rocket 3.9 23:48:17 10° NNW 23:52:42 61° W 23:53:29 51° SW
